• In Belarus
  • List of Countries
  • For 7 days
  • Water Temperature
  • Weather Map
  • Weather Widgets
  • user-avatar
    Login

    Hourly Weather Santiago del Estero

    Today, 8 December, Sunday

    Time Temperature Precipitation Wind Pressure Humidity
    00:00 +27°C° 0 mm 3 mps 738 mmHg 44%
    01:00 +26°C° 0 mm 3 mps 738 mmHg 45%
    02:00 +26°C° 0 mm 3 mps 738 mmHg 46%
    03:00 +25°C° 0 mm 2 mps 738 mmHg 48%
    04:00 +24°C° 0 mm 2 mps 738 mmHg 51%
    05:00 +23°C° 0 mm 2 mps 738 mmHg 53%
    06:00 +25°C° 0 mm 1 mps 739 mmHg 49%
    07:00 +27°C° 0 mm 1 mps 740 mmHg 44%
    08:00 +29°C° 0 mm 1 mps 740 mmHg 40%
    09:00 +30°C° 0 mm 1 mps 740 mmHg 37%
    10:00 +32°C° 0 mm 2 mps 740 mmHg 34%
    11:00 +35°C° 0 mm 2 mps 740 mmHg 31%
    12:00 +35°C° 0 mm 3 mps 740 mmHg 30%
    13:00 +36°C° 0 mm 3 mps 739 mmHg 28%
    14:00 +37°C° 0 mm 4 mps 739 mmHg 26%
    15:00 +37°C° 0 mm 4 mps 738 mmHg 26%
    16:00 +37°C° 0 mm 4 mps 738 mmHg 26%
    17:00 +37°C° 0 mm 3 mps 738 mmHg 25%
    18:00 +35°C° 0 mm 3 mps 738 mmHg 29%
    19:00 +31°C° 0 mm 2 mps 738 mmHg 34%
    20:00 +29°C° 0 mm 2 mps 739 mmHg 38%
    21:00 +28°C° 0 mm 2 mps 739 mmHg 43%
    22:00 +28°C° 0 mm 2 mps 740 mmHg 49%
    23:00 +27°C° 0 mm 1 mps 740 mmHg 55%

    Tomorrow, 9 December, Monday

    Time Temperature Precipitation Wind Pressure Humidity
    00:00 +26°C° 0 mm 1 mps 740 mmHg 56%
    01:00 +26°C° 0 mm 2 mps 739 mmHg 56%
    02:00 +26°C° 0 mm 2 mps 739 mmHg 57%
    03:00 +25°C° 0 mm 2 mps 739 mmHg 57%
    04:00 +24°C° 0 mm 1 mps 739 mmHg 56%
    05:00 +24°C° 0 mm 1 mps 740 mmHg 56%
    06:00 +26°C° 0 mm 1 mps 740 mmHg 50%
    07:00 +28°C° 0 mm 2 mps 740 mmHg 43%
    08:00 +30°C° 0 mm 2 mps 741 mmHg 36%
    09:00 +32°C° 0 mm 2 mps 741 mmHg 32%
    10:00 +35°C° 0 mm 3 mps 740 mmHg 29%
    11:00 +38°C° 0 mm 3 mps 740 mmHg 25%
    12:00 +38°C° 0 mm 3 mps 740 mmHg 24%
    13:00 +40°C° 0 mm 4 mps 739 mmHg 23%
    14:00 +41°C° 0 mm 4 mps 738 mmHg 22%
    15:00 +41°C° 0 mm 4 mps 737 mmHg 22%
    16:00 +41°C° 0 mm 4 mps 737 mmHg 22%
    17:00 +41°C° 0 mm 4 mps 736 mmHg 23%
    18:00 +37°C° 0 mm 3 mps 737 mmHg 26%
    19:00 +35°C° 0 mm 3 mps 737 mmHg 30%
    20:00 +32°C° 0 mm 2 mps 737 mmHg 33%
    21:00 +31°C° 0 mm 3 mps 738 mmHg 33%
    22:00 +31°C° 0 mm 3 mps 738 mmHg 32%
    23:00 +32°C° 0 mm 4 mps 738 mmHg 32%

    Day after tomorrow, 10 December, Tuesday

    Time Temperature Precipitation Wind Pressure Humidity
    00:00 +30°C° 0 mm 3 mps 738 mmHg 36%
    01:00 +29°C° 0 mm 3 mps 738 mmHg 41%
    02:00 +28°C° 0 mm 3 mps 737 mmHg 45%
    03:00 +27°C° 0 mm 2 mps 738 mmHg 47%
    04:00 +26°C° 0 mm 2 mps 738 mmHg 48%
    05:00 +26°C° 0 mm 2 mps 738 mmHg 50%
    06:00 +27°C° 0.1 mm 2 mps 738 mmHg 47%
    07:00 +29°C° 0.1 mm 3 mps 738 mmHg 43%
    08:00 +30°C° 0.1 mm 3 mps 739 mmHg 39%
    09:00 +33°C° 0.1 mm 3 mps 739 mmHg 36%
    10:00 +36°C° 0.1 mm 3 mps 739 mmHg 32%
    11:00 +38°C° 0.1 mm 2 mps 739 mmHg 28%
    12:00 +39°C° 0 mm 3 mps 738 mmHg 26%
    13:00 +42°C° 0 mm 3 mps 737 mmHg 24%
    14:00 +43°C° 0 mm 3 mps 737 mmHg 22%
    15:00 +43°C° 0 mm 3 mps 736 mmHg 22%
    16:00 +42°C° 0 mm 3 mps 736 mmHg 22%
    17:00 +42°C° 0 mm 3 mps 735 mmHg 22%
    18:00 +40°C° 0 mm 4 mps 735 mmHg 29%
    19:00 +36°C° 0 mm 4 mps 736 mmHg 35%
    20:00 +33°C° 0 mm 4 mps 736 mmHg 41%
    21:00 +31°C° 0 mm 3 mps 736 mmHg 44%
    22:00 +31°C° 0 mm 3 mps 736 mmHg 46%
    23:00 +30°C° 0 mm 2 mps 736 mmHg 48%

    11 December, Wednesday

    Time Temperature Precipitation Wind Pressure Humidity
    00:00 +30°C° 0 mm 2 mps 736 mmHg 49%
    01:00 +29°C° 0 mm 3 mps 735 mmHg 51%
    02:00 +28°C° 0 mm 3 mps 735 mmHg 53%
    03:00 +28°C° 0 mm 3 mps 735 mmHg 55%
    04:00 +27°C° 0 mm 3 mps 735 mmHg 57%
    05:00 +27°C° 0 mm 3 mps 734 mmHg 59%
    06:00 +29°C° 0 mm 4 mps 734 mmHg 55%
    07:00 +32°C° 0 mm 5 mps 735 mmHg 50%
    08:00 +34°C° 0 mm 5 mps 735 mmHg 45%
    09:00 +38°C° 0 mm 6 mps 734 mmHg 40%
    10:00 +40°C° 0 mm 6 mps 734 mmHg 34%
    11:00 +43°C° 0 mm 7 mps 734 mmHg 28%
    12:00 +45°C° 0 mm 6 mps 733 mmHg 25%
    13:00 +46°C° 0 mm 6 mps 732 mmHg 22%
    14:00 +47°C° 0 mm 6 mps 732 mmHg 19%
    15:00 +47°C° 0 mm 5 mps 731 mmHg 18%
    16:00 +47°C° 0 mm 4 mps 730 mmHg 18%
    17:00 +47°C° 0 mm 4 mps 730 mmHg 18%
    18:00 +43°C° 0 mm 3 mps 730 mmHg 21%
    19:00 +39°C° 0 mm 2 mps 730 mmHg 25%
    20:00 +36°C° 0 mm 2 mps 731 mmHg 29%
    21:00 +35°C° 0 mm 2 mps 732 mmHg 30%
    22:00 +34°C° 0 mm 2 mps 732 mmHg 32%
    23:00 +34°C° 0 mm 2 mps 733 mmHg 33%

    12 December, Thursday

    Time Temperature Precipitation Wind Pressure Humidity
    00:00 +32°C° 0 mm 4 mps 734 mmHg 39%
    01:00 +30°C° 0 mm 5 mps 734 mmHg 45%
    02:00 +29°C° 0 mm 6 mps 735 mmHg 51%
    03:00 +28°C° 0.1 mm 5 mps 736 mmHg 56%
    04:00 +27°C° 0.1 mm 5 mps 736 mmHg 61%
    05:00 +26°C° 0.1 mm 5 mps 737 mmHg 66%
    06:00 +27°C° 0 mm 5 mps 738 mmHg 60%
    07:00 +28°C° 0 mm 5 mps 739 mmHg 54%
    08:00 +29°C° 0 mm 6 mps 740 mmHg 48%
    09:00 +30°C° 0 mm 6 mps 741 mmHg 39%
    10:00 +30°C° 0 mm 7 mps 741 mmHg 30%
    11:00 +32°C° 0 mm 7 mps 742 mmHg 20%
    12:00 +32°C° 0 mm 7 mps 741 mmHg 19%
    13:00 +32°C° 0 mm 6 mps 741 mmHg 17%
    14:00 +33°C° 0 mm 6 mps 740 mmHg 16%
    15:00 +34°C° 0 mm 5 mps 740 mmHg 15%
    16:00 +34°C° 0 mm 4 mps 739 mmHg 15%
    17:00 +35°C° 0 mm 3 mps 739 mmHg 15%
    18:00 +31°C° 0 mm 3 mps 739 mmHg 19%
    19:00 +28°C° 0 mm 2 mps 740 mmHg 22%
    20:00 +26°C° 0 mm 1 mps 740 mmHg 26%
    21:00 +25°C° 0 mm 1 mps 740 mmHg 25%
    22:00 +25°C° 0 mm 1 mps 741 mmHg 25%
    23:00 +24°C° 0 mm 2 mps 741 mmHg 25%

    13 December, Friday

    Time Temperature Precipitation Wind Pressure Humidity
    00:00 +25°C° 0 mm 2 mps 741 mmHg 24%
    01:00 +26°C° 0 mm 2 mps 741 mmHg 22%
    02:00 +26°C° 0 mm 1 mps 741 mmHg 21%
    03:00 +26°C° 0 mm 1 mps 741 mmHg 20%
    04:00 +25°C° 0 mm 1 mps 741 mmHg 20%
    05:00 +25°C° 0 mm 1 mps 741 mmHg 19%
    06:00 +26°C° 0 mm 2 mps 741 mmHg 20%
    07:00 +26°C° 0 mm 2 mps 742 mmHg 21%
    08:00 +27°C° 0 mm 3 mps 742 mmHg 23%
    09:00 +28°C° 0 mm 3 mps 742 mmHg 22%
    10:00 +29°C° 0 mm 3 mps 742 mmHg 21%
    11:00 +30°C° 0 mm 4 mps 743 mmHg 20%
    12:00 +33°C° 0 mm 4 mps 742 mmHg 19%
    13:00 +35°C° 0 mm 5 mps 741 mmHg 18%
    14:00 +38°C° 0 mm 6 mps 740 mmHg 16%
    15:00 +38°C° 0 mm 6 mps 740 mmHg 18%
    16:00 +38°C° 0 mm 6 mps 739 mmHg 19%
    17:00 +38°C° 0 mm 6 mps 738 mmHg 20%
    18:00 +34°C° 0 mm 5 mps 738 mmHg 23%
    19:00 +32°C° 0 mm 5 mps 739 mmHg 25%
    20:00 +29°C° 0 mm 4 mps 739 mmHg 28%
    21:00 +29°C° 0 mm 4 mps 739 mmHg 28%
    22:00 +28°C° 0 mm 4 mps 740 mmHg 28%
    23:00 +28°C° 0 mm 3 mps 740 mmHg 29%
    Show more